WetterOnline ( https://www.wetteronline.de )

Wetter aktuell La Collancelle

Aktuelles Wetter: Auxerre/Perrigny (153m)

6-stündlich | Neueste Meldungen
Ortszeit Temperatur Wetter
Mo, 17.06. 20:00 23.3° C -
Mo, 17.06. 14:00 22.1° C wolkig
Mo, 17.06. 8:00 16.3° C bewölkt
Mo, 17.06. 2:00 15.7° C Sprühregen
So, 16.06. 20:00 16.0° C leichter Regen
So, 16.06. 14:00 17.2° C bedeckt
So, 16.06. 8:00 14.6° C wolkig
So, 16.06. 2:00 12.6° C bedeckt
Ortszeit Temperatur Wetter
Di, 18.06. 1:00 16.2° C -
Di, 18.06. 0:00 16.4° C -
Mo, 17.06. 23:00 17.9° C -
Mo, 17.06. 22:00 19.8° C -
Mo, 17.06. 21:00 21.6° C -
Mo, 17.06. 20:00 23.3° C -
Ortszeit Relative Feuchte Sichtweite
Mo, 17.06. 20:00 61% 19 km
Mo, 17.06. 14:00 68% 19 km
Mo, 17.06. 8:00 95% 19 km
Mo, 17.06. 2:00 97% 20 km
So, 16.06. 20:00 95% 16 km
So, 16.06. 14:00 76% 20 km
So, 16.06. 8:00 76% 19 km
So, 16.06. 2:00 84% 20 km
Ortszeit Relative Feuchte Sichtweite
Di, 18.06. 1:00 96% 20 km
Di, 18.06. 0:00 91% 20 km
Mo, 17.06. 23:00 86% 20 km
Mo, 17.06. 22:00 78% 1.6 km
Mo, 17.06. 21:00 70% 20 km
Mo, 17.06. 20:00 61% 19 km
Ortszeit Niederschlagsmenge Niederschlagsart
Mo, 17.06. 20:00 0.0 l/m2 in 12 Std. -
Mo, 17.06. 14:00 0.0 l/m2 in 6 Std. -
Mo, 17.06. 8:00 15 l/m2 in 12 Std. -
Mo, 17.06. 2:00 12 l/m2 in 6 Std. -
So, 16.06. 20:00 4 l/m2 in 12 Std. -
So, 16.06. 14:00 0.8 l/m2 in 6 Std. -
So, 16.06. 8:00 0.8 l/m2 in 12 Std. -
So, 16.06. 2:00 0.8 l/m2 in 6 Std. -
Ortszeit Niederschlagsmenge Niederschlagsart
Di, 18.06. 1:00 0.0 l/m2 in 1 Std. -
Di, 18.06. 0:00 0.0 l/m2 in 1 Std. -
Mo, 17.06. 23:00 keine Meldung -
Mo, 17.06. 22:00 0.0 l/m2 in 1 Std. -
Mo, 17.06. 21:00 0.0 l/m2 in 1 Std. -
Mo, 17.06. 20:00 keine Meldung -
Ortszeit Stärke Spitze Richtung
km/h Bft. km/h Grad Sektor
Mo, 17.06. 20:00 9 2 20 170° S
Mo, 17.06. 14:00 15 3 28 190° S
Mo, 17.06. 8:00 13 3 19 170° S
Mo, 17.06. 2:00 15 3 30 200° S
So, 16.06. 20:00 13 3 26 170° S
So, 16.06. 14:00 24 4 52 210° SW
So, 16.06. 8:00 22 4 37 180° S
So, 16.06. 2:00 13 3 22 190° S
Ortszeit Stärke Spitze Richtung
km/h Bft. km/h Grad Sektor
Di, 18.06. 1:00 2 1 4 250° W
Di, 18.06. 0:00 0 0 6 - -
Mo, 17.06. 23:00 6 1 7 110° O
Mo, 17.06. 22:00 4 1 11 100° O
Mo, 17.06. 21:00 9 2 19 150° SO
Mo, 17.06. 20:00 9 2 20 170° S
Ortszeit Untergrenze Bedeckung Gattung
total tief tief mittel hoch
Mo, 17.06. 20:00 - - - - - -
Mo, 17.06. 14:00 - 6/8 - - - -
Mo, 17.06. 8:00 - 7/8 - - - -
Mo, 17.06. 2:00 - 8/8 - - - -
So, 16.06. 20:00 - 7/8 - - - -
So, 16.06. 14:00 - 8/8 - - - -
So, 16.06. 8:00 - 6/8 - - - -
So, 16.06. 2:00 - 8/8 - - - -
Ortszeit Bedeckungsgrad in Achtel und Wolkenuntergrenze
Di, 18.06. 1:00 -
Di, 18.06. 0:00 -
Mo, 17.06. 23:00 -
Mo, 17.06. 22:00 -
Mo, 17.06. 21:00 -
Mo, 17.06. 20:00 -
Ortszeit Luftdruck NN (hPa) Tendenz (hPa in 3 Std.)
Mo, 17.06. 20:00 1012 - 0,3
Mo, 17.06. 14:00 1013 - 0,2
Mo, 17.06. 8:00 1013 + 0,4
Mo, 17.06. 2:00 1011 + 0,2
So, 16.06. 20:00 1010 - 0,3
So, 16.06. 14:00 1010 + 0,3
So, 16.06. 8:00 1010 - 0,7
So, 16.06. 2:00 1012 + 0,2
Ortszeit Luftdruck NN (hPa) Tendenz (hPa in 3 Std.)
Di, 18.06. 1:00 1013 + 0,4
Di, 18.06. 0:00 1014 + 0,8
Mo, 17.06. 23:00 1013 + 0,6
Mo, 17.06. 22:00 1013 + 0,4
Mo, 17.06. 21:00 1012 + 0,2
Mo, 17.06. 20:00 1012 - 0,3
Ortszeit Schneehöhe (cm)
Mo, 17.06. 20:00 0
Mo, 17.06. 14:00 0
Mo, 17.06. 8:00 0
Mo, 17.06. 2:00 0
So, 16.06. 20:00 0
So, 16.06. 14:00 0
So, 16.06. 8:00 0
So, 16.06. 2:00 0
Ortszeit Schneehöhe (cm)
Di, 18.06. 1:00 -
Di, 18.06. 0:00 -
Mo, 17.06. 23:00 0
Mo, 17.06. 22:00 -
Mo, 17.06. 21:00 -
Mo, 17.06. 20:00 0
Link zu dieser Seite / Seite empfehlen

Das Wetter in ...